"America/Chicago Time","Lifetime Energy (kWh)","Power (W)","AC Volts RMS (V) ","AC Amps RMS (mA)","Grid Frequency (Hz)","Inverter Temperature (C)"
"08/06/12 09:54:31","177.4667","138.5","216.05","643","60.0","33"
"08/06/12 09:59:31","177.4775","139.8","215.71","651","60.03","34"
"08/06/12 10:04:32","177.4886","142.4","216.31","660","60.03","35"
"08/06/12 10:09:31","177.4997","144.2","215.53","672","60.03","35"
"08/06/12 10:14:30","177.5111","147.9","216.42","682","60.03","35"
"08/06/12 10:19:32","177.5226","147.7","215.44","688","60.03","35"
"08/06/12 10:24:32","177.5343","150.6","215.89","699","60.0","36"
"08/06/12 10:29:31","177.5461","153.3","215.59","709","60.0","36"
"08/06/12 10:34:32","177.5583","155.6","216.26","719","60.0","36"
"08/06/12 10:39:32","177.5704","157.7","216.99","724","60.0","37"
"08/06/12 10:44:31","177.5827","160.2","216.33","733","60.03","37"
"08/06/12 10:49:31","177.5952","159.7","215.8","739","60.03","37"
"08/06/12 10:54:30","177.6078","162.2","216.36","750","60.03","38"
"08/06/12 10:59:30","177.6205","164.9","217.34","750","60.03","38"
"08/06/12 11:04:31","177.6334","165.2","218.0","749","60.0","38"
"08/06/12 11:09:31","177.6464","167.5","217.99","761","60.0","38"
"08/06/12 11:14:32","177.6595","167.8","217.14","768","60.03","38"
"08/06/12 11:19:31","177.6726","170.0","217.39","774","60.0","38"
"08/06/12 11:24:32","177.6859","170.8","218.05","777","60.03","38"
"08/06/12 11:29:32","177.6991","169.4","217.26","771","60.0","38"
"08/06/12 11:34:31","177.7124","172.7","217.12","786","60.0","39"
"08/06/12 11:39:30","177.7258","174.2","216.02","794","60.0","38"
"08/06/12 11:44:31","177.7395","174.4","216.0","802","60.03","39"
"08/06/12 11:49:31","177.7531","175.1","215.95","805","60.03","39"
"08/06/12 11:54:31","177.7669","175.5","215.6","803","60.03","39"
"08/06/12 11:59:30","177.7803","177.5","216.66","813","60.03","39"
"08/06/12 12:04:31","177.7941","177.7","215.96","818","60.03","39"
"08/06/12 12:09:31","177.808","179.8","216.14","816","59.96","40"
"08/06/12 12:14:31","177.8217","174.3","216.01","798","60.0","40"
"08/06/12 12:19:32","177.835","172.0","217.05","785","60.03","40"
"08/06/12 12:24:30","177.8487","180.6","217.6","818","60.03","40"
"08/06/12 12:29:30","177.8627","179.6","215.25","828","60.0","40"
"08/06/12 12:34:32","177.8769","183.0","215.73","838","60.0","40"
"08/06/12 12:39:30","177.891","180.8","216.62","822","60.0","40"
"08/06/12 12:44:31","177.9045","117.9","214.69","558","60.0","39"
"08/06/12 12:49:32","177.915","34.5","213.15","71","60.0","38"
"08/06/12 12:54:31","177.9278","183.1","217.9","835","60.03","39"
"08/06/12 12:59:30","177.942","183.3","217.18","834","60.03","39"
"08/06/12 13:04:30","177.9563","186.1","217.42","843","60.03","39"
"08/06/12 13:09:31","177.9688","101.9","213.7","493","60.03","39"
"08/06/12 13:14:31","177.982","185.5","217.65","840","60.03","39"
"08/06/12 13:19:31","177.9957","153.2","218.05","701","60.03","39"
"08/06/12 13:24:31","178.0089","176.6","218.04","804","60.0","39"
"08/06/12 13:29:31","178.0226","174.4","218.36","791","60.03","39"
"08/06/12 13:34:31","178.0353","144.2","216.78","666","60.03","38"
"08/06/12 13:39:30","178.0433","78.9","214.66","388","60.03","37"
"08/06/12 13:44:31","178.0539","190.9","217.93","861","59.96","38"
"08/06/12 13:54:30","178.0792","162.7","216.91","744","60.03","38"
"08/06/12 13:59:31","178.0911","152.5","216.67","700","60.03","39"
"08/06/12 14:04:30","178.1023","155.5","217.52","713","60.03","38"
"08/06/12 14:09:32","178.1146","158.4","217.08","727","60.03","38"
"08/06/12 14:14:32","178.1268","148.2","216.62","683","60.03","39"
"08/06/12 14:19:31","178.1365","136.9","217.02","634","60.03","38"
"08/06/12 14:24:31","178.1464","137.1","217.46","637","60.03","38"
"08/06/12 14:29:32","178.1566","102.7","216.6","486","60.0","38"
"08/06/12 14:34:30","178.1677","117.4","216.63","550","60.0","39"
"08/06/12 14:39:31","178.1779","144.0","217.48","663","60.0","38"
"08/06/12 14:44:31","178.1882","93.0","215.9","451","60.03","38"
"08/06/12 14:49:31","178.2002","167.5","217.48","760","60.0","39"
"08/06/12 14:54:32","178.213","161.1","216.81","743","60.03","39"
"08/06/12 14:59:31","178.2247","126.5","217.14","592","60.03","39"
"08/06/12 15:04:31","178.236","127.9","216.81","602","60.03","39"
"08/06/12 15:09:32","178.2447","78.1","214.5","386","60.0","38"
"08/06/12 15:14:31","178.2513","71.4","213.58","205","60.0","37"
"08/06/12 15:19:32","178.2553","64.1","213.98","282","60.0","36"
"08/06/12 15:24:31","178.2594","47.3","213.97","368","60.03","35"
"08/06/12 15:29:31","178.2632","45.1","214.94","254","60.03","34"
"08/06/12 15:34:32","178.2659","33.9","213.98","120","60.03","34"
"08/06/12 15:39:30","178.2677","21.1","213.36","16","60.03","33"
"08/06/12 15:44:30","178.2694","19.0","214.47","251","60.03","32"
"08/06/12 15:49:31","178.2717","36.2","214.1","276","60.03","32"
"08/06/12 15:54:30","178.2741","26.7","213.82","25","60.03","32"
"08/06/12 15:59:31","178.276","16.5","214.06","42","60.03","31"
"08/06/12 16:04:32","178.2774","17.1","214.37","3","60.03","31"
"08/06/12 16:09:31","178.2788","14.4","214.73","117","60.03","31"
"08/06/12 16:14:30","178.2805","15.0","215.03","4","60.03","30"
"08/06/12 16:19:31","178.2814","14.5","213.96","99","60.0","30"
"08/06/12 16:24:32","178.2824","14.4","213.42","246","60.03","30"
"08/06/12 16:29:32","178.2838","30.9","214.97","223","60.03","30"
"08/06/12 16:34:31","178.286","32.7","214.99","92","60.03","30"
"08/06/12 16:39:31","178.289","39.6","215.18","265","60.0","30"
"08/06/12 16:44:31","178.2922","36.8","214.32","101","60.03","30"
"08/06/12 16:49:31","178.2945","39.3","214.06","297","60.0","30"
"08/06/12 16:54:30","178.2966","13.7","213.51","14","60.0","30"
"08/06/12 16:59:32","178.2978","14.4","214.05","11","60.03","30"
"08/06/12 17:04:31","178.2988","6.6","214.29","185","60.03","30"
"08/06/12 17:09:32","178.2994","11.2","215.06","4","60.03","30"
"08/06/12 17:14:32","178.2998","0.0","214.75","0","60.0","30"
"08/06/12 17:19:32","178.3003","10.9","214.62","221","60.03","29"
"08/06/12 17:24:31","178.3011","13.5","214.3","3","60.03","29"
"08/06/12 17:29:32","178.3018","13.4","213.63","59","60.03","29"
"08/06/12 17:34:31","178.3024","11.2","213.4","2","60.03","29"
"08/06/12 17:39:32","178.3032","35.7","214.05","211","60.03","29"
"08/06/12 17:44:32","178.3055","25.0","214.68","104","60.03","29"
"08/06/12 17:49:32","178.308","39.7","214.66","129","60.03","29"
"08/06/12 17:54:31","178.311","37.6","214.6","152","60.03","30"
"08/06/12 17:59:31","178.3145","29.2","213.7","35","60.03","30"
"08/06/12 18:04:31","178.3164","15.2","214.58","15","60.03","31"
"08/06/12 18:09:32","178.3181","12.1","214.82","251","60.0","31"
"08/06/12 18:14:32","178.3212","43.4","214.73","138","60.0","31"
"08/06/12 18:19:31","178.3233","38.2","213.43","71","60.03","31"
"08/06/12 18:24:31","178.3248","23.8","214.94","166","60.03","31"
"08/06/12 18:29:32","178.3261","21.0","214.24","26","60.03","31"
"08/06/12 18:34:32","178.3276","22.6","213.96","261","60.07","31"
"08/06/12 18:39:32","178.3285","12.0","214.11","81","60.03","31"
"08/07/12 06:24:38","178.3285","0.0","213.78","0","60.07","18"
"08/07/12 06:29:41","178.3285","0.0","212.95","0","60.03","18"
"08/07/12 06:34:34","178.3287","0.0","216.79","0","60.03","19"
"08/07/12 06:39:37","178.329","0.0","214.98","0","60.07","20"
"08/07/12 06:44:35","178.3294","12.2","215.07","23","60.03","20"
"08/07/12 06:49:36","178.3299","12.7","214.25","1","60.03","20"
"08/07/12 06:54:36","178.3309","21.7","213.98","209","60.07","20"
"08/07/12 06:59:34","178.3321","25.7","212.48","218","60.0","20"
"08/07/12 07:04:36","178.3335","21.6","213.39","74","60.03","21"
"08/07/12 07:09:34","178.3352","13.0","215.57","289","60.03","21"
"08/07/12 07:14:34","178.3372","33.6","214.71","163","60.07","22"
"08/07/12 07:19:34","178.3395","35.7","214.59","67","60.03","22"
"08/07/12 07:24:35","178.3421","38.7","214.26","272","60.03","22"
"08/07/12 07:29:35","178.3449","33.6","215.32","155","60.0","23"
"08/07/12 07:34:35","178.3481","43.9","214.99","137","60.03","23"
"08/07/12 07:39:36","178.3515","45.8","215.99","115","60.03","24"
"08/07/12 07:44:34","178.3553","47.9","215.05","92","60.03","24"
"08/07/12 07:49:36","178.3594","45.0","214.57","151","60.07","24"
"08/07/12 07:54:34","178.3638","50.1","215.12","407","60.07","25"
"08/07/12 07:59:35","178.3685","62.8","215.94","323","60.03","25"
"08/07/12 08:04:35","178.3736","68.1","215.16","341","60.0","26"
"08/07/12 08:09:35","178.3789","71.9","214.75","361","60.0","26"
"08/07/12 08:14:35","178.3847","75.9","214.92","378","60.0","26"
"08/07/12 08:19:36","178.3908","79.6","215.2","392","60.03","27"
"08/07/12 08:24:35","178.3971","83.6","216.42","410","60.03","27"
"08/07/12 08:29:35","178.4037","88.0","216.67","423","60.0","27"
"08/07/12 08:39:35","178.4176","94.7","216.77","456","60.03","28"
"08/07/12 08:44:36","178.4252","98.3","216.46","472","60.03","28"
"08/07/12 08:49:36","178.4329","102.0","216.45","484","60.03","28"
"08/07/12 08:54:35","178.441","105.3","216.9","499","60.03","29"
"08/07/12 08:59:34","178.4493","108.4","215.39","519","60.03","29"
"08/07/12 09:04:34","178.4579","111.1","214.31","531","60.03","30"
"08/07/12 09:09:36","178.4667","115.3","216.1","544","60.03","30"
"08/07/12 09:14:35","178.4758","118.3","216.55","557","60.03","30"
"08/07/12 09:19:36","178.4851","120.9","216.67","570","60.0","31"
"08/07/12 09:24:34","178.4947","124.0","217.03","577","60.03","31"
"08/07/12 09:29:35","178.5044","126.1","216.92","589","60.0","31"
"08/07/12 09:34:34","178.5143","129.2","216.83","602","60.03","32"
"08/07/12 09:39:35","178.5245","132.4","216.97","615","60.0","32"
"08/07/12 09:44:35","178.535","135.5","217.01","631","60.03","32"
"08/07/12 09:49:35","178.5457","136.8","217.58","636","60.03","32"
"08/07/12 09:54:35","178.5565","139.5","217.86","645","60.03","32"
"08/07/12 09:59:36","178.5674","142.4","218.17","658","60.03","33"
"08/07/12 10:04:35","178.5786","144.8","217.47","662","60.03","33"
"08/07/12 10:09:35","178.5898","147.9","218.78","672","60.0","33"
"08/07/12 10:14:34","178.6014","149.2","218.34","687","60.0","34"
"08/07/12 10:19:34","178.6131","151.4","217.98","694","60.03","34"
"08/07/12 10:24:35","178.6251","153.9","218.25","700","60.0","34"
"08/07/12 10:29:36","178.6372","156.1","216.99","717","60.0","34"
"08/07/12 10:34:34","178.6493","156.8","216.53","721","59.96","35"
"08/07/12 10:39:34","178.6615","158.0","217.52","725","60.03","36"
"08/07/12 10:44:34","178.6739","160.8","216.89","737","60.0","36"
"08/07/12 10:49:35","178.6865","162.4","217.15","741","60.0","36"
"08/07/12 10:54:35","178.6994","165.8","217.76","753","60.03","36"
"08/07/12 10:59:35","178.7123","166.7","217.98","763","60.03","36"
"08/07/12 11:04:36","178.7254","170.3","217.82","775","60.0","36"
"08/07/12 11:09:36","178.7387","170.3","221.6","758","60.0","36"
"08/07/12 11:14:36","178.7521","173.6","219.08","783","60.0","36"
"08/07/12 11:19:34","178.7655","174.1","218.64","787","60.03","36"
"08/07/12 11:24:35","178.7791","175.7","215.68","808","60.0","36"
"08/07/12 11:29:35","178.7928","176.3","216.7","799","60.0","36"
"08/07/12 11:34:36","178.8066","177.1","216.96","805","60.03","36"
"08/07/12 11:39:34","178.8203","175.8","218.77","799","60.0","37"
"08/07/12 11:44:35","178.8341","176.3","217.65","799","60.03","37"
"08/07/12 11:49:38","178.848","178.1","218.56","809","60.03","37"
"08/07/12 11:54:34","178.8618","178.7","218.31","816","60.07","37"
"08/07/12 11:59:35","178.8757","178.8","218.63","811","60.03","38"
"08/07/12 12:04:35","178.8898","180.6","218.43","813","60.0","38"
"08/07/12 12:09:36","178.9037","179.5","218.58","812","60.0","38"
"08/07/12 12:14:36","178.9178","180.2","218.87","810","60.0","38"
"08/07/12 12:19:34","178.9317","181.9","218.7","826","60.0","38"
"08/07/12 12:24:35","178.946","183.4","218.34","830","60.03","38"
"08/07/12 12:29:35","178.9604","185.1","218.27","836","60.0","38"
"08/07/12 12:34:35","178.9749","184.0","218.08","835","60.0","38"
"08/07/12 12:39:34","178.9891","185.5","218.14","841","60.0","38"
"08/07/12 12:44:34","179.0036","183.2","217.45","831","60.0","38"
"08/07/12 12:49:35","179.0178","182.4","219.18","825","60.0","38"
"08/07/12 12:54:35","179.032","182.0","218.13","829","60.0","38"
"08/07/12 12:59:35","179.0462","181.4","219.26","818","60.03","38"
"08/07/12 13:04:35","179.0603","180.0","219.4","806","60.0","38"
"08/07/12 13:09:35","179.0745","181.5","218.73","819","60.03","38"
"08/07/12 13:14:36","179.0886","181.6","219.01","823","60.03","38"
"08/07/12 13:24:36","179.1167","179.4","218.13","816","60.0","38"
"08/07/12 13:29:35","179.1306","177.2","218.49","805","60.0","38"
"08/07/12 13:34:36","179.1446","177.6","219.48","804","60.03","38"
"08/07/12 13:39:34","179.1583","176.0","219.08","792","60.03","39"
"08/07/12 13:44:36","179.172","175.3","218.58","792","60.03","39"
"08/07/12 13:49:35","179.1856","174.7","219.77","789","60.0","39"
"08/07/12 13:54:35","179.1992","172.7","218.76","783","60.03","39"
"08/07/12 13:59:34","179.2125","171.6","218.55","780","60.03","39"
"08/07/12 14:04:34","179.226","173.4","218.43","789","60.0","38"
"08/07/12 14:09:36","179.2394","170.9","218.18","780","60.0","38"
"08/07/12 14:14:35","179.2525","167.3","217.2","769","60.03","38"
"08/07/12 14:19:35","179.2657","168.9","217.01","772","60.03","38"
"08/07/12 14:24:36","179.2787","164.4","217.22","750","60.03","38"
"08/07/12 14:29:35","179.2914","164.1","218.45","746","60.03","38"
"08/07/12 14:34:35","179.3041","162.8","218.32","744","60.03","38"
"08/07/12 14:39:35","179.3167","160.8","217.77","736","60.03","37"
"08/07/12 14:44:35","179.3292","158.1","218.2","723","60.03","38"
"08/07/12 14:49:35","179.3414","155.7","217.65","714","60.0","38"
"08/07/12 14:54:36","179.3535","153.8","216.96","709","60.0","38"
"08/07/12 14:59:36","179.3655","154.7","217.67","708","60.0","37"
"08/07/12 15:04:36","179.3775","151.8","217.44","702","60.07","37"
"08/07/12 15:09:35","179.3891","149.7","216.86","683","60.0","36"
"08/07/12 15:14:36","179.4006","145.1","216.47","674","60.0","36"
"08/07/12 15:19:35","179.4119","144.9","217.31","670","60.0","36"
"08/07/12 15:24:34","179.4231","143.5","217.65","659","60.0","35"
"08/07/12 15:29:36","179.4342","141.2","217.36","654","60.0","34"
"08/07/12 15:34:34","179.445","137.9","216.85","641","60.0","34"
"08/07/12 15:39:34","179.4556","134.9","217.39","621","60.0","34"
"08/07/12 15:44:35","179.466","130.3","217.02","607","60.03","34"
"08/07/12 15:49:34","179.4759","126.6","216.72","592","60.03","34"
"08/07/12 15:54:36","179.4857","123.8","216.28","584","60.03","34"
"08/07/12 15:59:36","179.4952","121.7","216.77","568","60.03","34"
"08/07/12 16:04:35","179.5045","118.8","216.19","561","60.03","34"
"08/07/12 16:09:36","179.5138","115.8","216.23","549","60.0","34"
"08/07/12 16:14:35","179.5226","111.8","216.85","524","60.0","34"
"08/07/12 16:19:36","179.5312","108.8","216.26","515","60.0","34"
"08/07/12 16:24:35","179.5395","105.7","216.1","502","60.0","34"
"08/07/12 16:29:36","179.5476","102.7","215.88","491","60.03","33"
"08/07/12 16:34:35","179.5555","99.6","215.81","478","60.03","33"
"08/07/12 16:39:34","179.5631","96.5","215.24","466","60.03","32"
"08/07/12 16:44:34","179.5705","91.8","214.69","449","60.03","32"
"08/07/12 16:49:34","179.5774","88.4","215.49","429","60.03","32"
"08/07/12 16:54:34","179.5842","84.4","215.49","415","60.0","32"
"08/07/12 16:59:35","179.5905","80.3","216.09","397","60.07","32"
"08/07/12 17:04:35","179.5966","76.3","215.74","378","60.03","31"
"08/07/12 17:09:35","179.6023","72.1","215.92","360","60.03","31"
"08/07/12 17:14:36","179.6078","68.4","216.1","341","60.03","31"
"08/07/12 17:19:35","179.613","64.3","216.51","329","60.03","31"
"08/07/12 17:24:35","179.6178","58.5","214.31","159","60.0","31"
"08/07/12 17:29:36","179.6217","43.3","215.52","379","60.0","30"
"08/07/12 17:34:35","179.6259","42.4","215.41","280","60.0","30"
"08/07/12 17:39:35","179.6298","47.1","214.98","368","60.03","30"
"08/07/12 17:44:35","179.6334","37.6","215.42","327","60.03","30"
"08/07/12 17:49:34","179.6365","34.2","214.92","142","60.03","30"
"08/07/12 17:54:35","179.6395","40.9","214.53","310","60.03","29"
"08/07/12 17:59:35","179.6421","36.7","214.92","265","60.0","29"
"08/07/12 18:04:34","179.6444","25.8","214.45","137","60.03","29"
"08/07/12 18:09:35","179.6465","26.0","215.06","294","60.03","29"
"08/07/12 18:14:34","179.6484","29.2","214.82","101","60.0","29"
"08/07/12 18:19:35","179.6499","13.5","214.55","209","60.03","29"
"08/07/12 18:24:35","179.6513","14.1","214.33","14","60.07","29"
"08/07/12 18:29:35","179.6524","23.3","214.46","148","60.03","29"
"08/07/12 18:34:36","179.6534","13.8","214.33","2","60.0","28"
"08/07/12 18:39:35","179.6541","7.2","215.49","0","60.03","28"
"08/07/12 18:44:35","179.6548","0.0","215.24","0","60.03","28"
"08/07/12 18:49:36","179.6554","6.0","214.04","0","60.03","28"
"08/07/12 18:54:35","179.656","0.0","213.69","0","60.07","28"
"08/07/12 18:59:36","179.6567","0.0","214.3","0","60.03","27"
"08/07/12 19:04:35","179.6576","14.4","213.3","213","60.03","27"
"08/07/12 19:09:38","179.6584","13.2","214.05","18","60.0","27"
"08/07/12 19:14:34","179.6592","14.7","213.05","63","60.0","27"
"08/07/12 19:19:35","179.6596","13.2","213.93","192","60.03","27"
"08/07/12 19:24:35","179.6601","14.6","213.62","11","60.03","27"
"08/08/12 06:39:39","179.6608","0.0","213.48","0","60.03","18"
"08/08/12 06:44:40","179.6611","0.0","213.65","0","60.03","18"
"08/08/12 06:49:39","179.6615","0.0","213.72","0","60.0","18"
"08/08/12 06:54:39","179.662","0.0","212.7","0","60.03","19"
"08/08/12 06:59:39","179.6627","0.0","214.23","0","60.0","19"
"08/08/12 07:04:39","179.6634","15.9","214.09","68","60.03","19"
"08/08/12 07:09:39","179.6642","14.6","215.12","3","60.03","19"
"08/08/12 07:14:39","179.6651","11.5","215.18","10","60.0","20"
"08/08/12 07:19:40","179.6661","10.4","215.12","1","60.03","20"
"08/08/12 07:24:38","179.667","19.0","214.44","241","60.03","20"
"08/08/12 07:29:39","179.6686","16.0","213.76","20","60.03","20"
"08/08/12 07:34:39","179.6717","53.7","214.1","389","60.0","21"
"08/08/12 07:39:39","179.6754","40.8","213.57","310","60.03","22"
"08/08/12 07:44:39","179.6788","48.2","213.37","201","60.03","22"
"08/08/12 07:49:39","179.6815","22.4","213.05","230","60.03","22"
"08/08/12 07:54:39","179.6839","29.0","213.67","284","60.03","23"
"08/08/12 07:59:39","179.686","21.6","213.37","16","60.03","23"
"08/08/12 08:04:40","179.6875","24.6","213.33","294","60.03","23"
"08/08/12 08:09:40","179.6887","15.3","213.48","27","60.03","23"
"08/08/12 08:14:38","179.6896","13.6","213.02","70","60.03","23"
"08/08/12 08:19:39","179.6908","22.6","213.19","88","60.03","23"
"08/08/12 08:24:39","179.6922","12.4","213.91","22","60.0","23"
"08/08/12 08:29:39","179.6938","33.3","213.08","176","60.03","23"
"08/08/12 08:34:39","179.6966","47.3","213.65","218","60.0","23"
"08/08/12 08:39:39","179.6992","34.7","213.29","177","60.0","23"
"08/08/12 08:44:39","179.7014","11.3","212.6","5","60.03","24"
"08/08/12 08:49:38","179.7026","6.2","213.91","198","60.03","24"
"08/08/12 08:54:38","179.7039","16.2","213.71","25","60.03","24"
"08/08/12 08:59:39","179.7047","0.0","213.76","0","60.0","24"
"08/08/12 09:04:39","179.7052","8.0","214.57","8","60.03","24"
"08/08/12 09:09:38","179.7064","14.4","213.4","63","60.0","24"
"08/08/12 09:14:43","179.7081","26.7","213.5","17","60.0","24"
"08/08/12 09:19:38","179.7104","30.6","214.12","76","60.03","24"
"08/08/12 09:24:38","179.7129","29.5","213.6","171","60.0","24"
"08/08/12 09:29:39","179.7157","29.1","214.23","156","60.0","24"
"08/08/12 09:34:39","179.7193","56.5","214.25","370","60.03","24"
"08/08/12 09:39:39","179.7245","135.1","216.04","632","60.0","25"
"08/08/12 09:44:40","179.7346","65.2","214.87","331","60.0","26"
"08/08/12 09:49:39","179.7397","63.2","213.8","323","60.0","27"
"08/08/12 09:54:38","179.7444","40.8","213.79","341","60.0","27"
"08/08/12 09:59:39","179.7482","49.0","213.85","255","60.03","27"
"08/08/12 10:04:38","179.7513","36.0","214.33","300","60.03","28"
"08/08/12 10:09:38","179.7566","106.8","214.18","513","60.0","28"
"08/08/12 10:14:38","179.763","71.3","214.25","360","60.03","28"
"08/08/12 10:19:39","179.7686","73.3","214.14","365","60.0","28"
"08/08/12 10:24:39","179.7749","77.4","215.28","381","60.0","29"
"08/08/12 10:29:39","179.7817","93.1","215.45","451","60.03","29"
"08/08/12 10:34:38","179.7872","47.7","214.48","404","60.0","29"
"08/08/12 10:39:39","179.7904","44.4","214.96","147","60.0","29"
"08/08/12 10:44:40","179.7935","37.2","213.86","226","60.03","28"
"08/08/12 10:49:40","179.7958","30.8","213.56","21","60.07","28"
"08/08/12 10:54:38","179.7978","24.0","213.97","196","60.0","28"
"08/08/12 10:59:39","179.7995","21.3","214.13","16","60.03","27"
"08/08/12 11:04:39","179.801","16.1","215.14","17","60.0","27"
"08/08/12 11:09:38","179.8025","16.7","214.58","17","60.03","27"
"08/08/12 11:14:39","179.8046","28.7","214.25","262","60.03","26"
"08/08/12 11:19:39","179.8076","42.7","214.81","231","60.0","26"
"08/08/12 11:24:38","179.8121","49.5","214.94","380","60.03","26"
"08/08/12 11:29:39","179.816","38.1","214.41","96","60.03","27"
"08/08/12 11:34:39","179.8196","45.9","214.44","123","60.0","27"
"08/08/12 11:39:39","179.8231","39.0","213.97","352","60.03","27"
"08/08/12 11:44:39","179.8261","36.8","213.24","98","60.03","27"
"08/08/12 11:49:40","179.8287","38.0","213.84","297","60.03","26"
"08/08/12 11:54:38","179.8319","47.8","213.88","363","60.03","26"
"08/08/12 11:59:38","179.8357","40.5","214.21","338","60.03","27"
"08/08/12 12:04:38","179.8396","51.4","214.39","349","60.0","27"
"08/08/12 12:09:38","179.8437","43.9","214.13","230","60.03","27"
"08/08/12 12:14:39","179.8486","69.3","214.92","349","60.03","27"
"08/08/12 12:19:38","179.8549","87.5","216.57","423","60.0","27"
"08/08/12 12:24:39","179.8607","63.5","215.02","324","60.0","27"
"08/08/12 12:29:39","179.8657","68.4","215.8","343","60.03","27"
"08/08/12 12:34:39","179.8718","85.0","215.62","419","60.03","28"
"08/08/12 12:39:38","179.8798","111.0","214.67","531","60.03","28"
"08/08/12 12:44:38","179.8873","92.1","215.31","446","60.0","28"
"08/08/12 12:49:38","179.8945","81.4","214.36","406","60.07","29"
"08/08/12 12:54:38","179.9004","84.1","214.99","412","60.03","29"
"08/08/12 12:59:39","179.909","143.0","216.84","666","60.03","30"
"08/08/12 13:04:39","179.9209","153.1","216.75","708","60.03","31"
"08/08/12 13:09:39","179.932","100.0","215.52","479","60.03","32"
"08/08/12 13:14:38","179.9413","106.2","216.45","505","60.03","32"
"08/08/12 13:19:39","179.9476","74.7","214.43","375","60.0","31"
"08/08/12 13:24:40","179.9526","41.3","215.06","364","60.0","31"
"08/08/12 13:29:40","179.9567","44.5","215.08","170","60.03","30"
"08/08/12 13:34:39","179.96","33.4","215.3","281","60.03","30"
"08/08/12 13:39:39","179.9627","34.8","214.37","234","60.03","29"
"08/08/12 13:44:39","179.9649","29.8","215.25","104","60.03","28"
"08/08/12 13:49:40","179.9674","39.7","215.41","119","60.03","28"
"08/08/12 13:54:40","179.9702","31.1","214.68","199","60.03","28"
"08/08/12 13:59:38","179.9728","38.0","214.11","232","60.03","27"
"08/08/12 14:04:39","179.9758","49.2","214.88","207","60.07","27"
"08/08/12 14:09:39","179.9794","43.2","214.76","141","60.03","27"
"08/08/12 14:14:38","179.9827","36.5","214.04","209","60.03","27"
"08/08/12 14:19:39","179.9863","43.2","214.39","387","60.03","27"
"08/08/12 14:24:39","179.9899","41.9","215.19","340","60.03","26"
"08/08/12 14:29:39","179.9935","54.2","215.21","395","60.0","26"
"08/08/12 14:34:40","179.9972","41.0","215.33","109","60.0","26"
"08/08/12 14:39:38","180.0007","52.3","215.07","374","60.0","26"
"08/08/12 14:44:39","180.0042","37.0","215.43","306","60.03","26"
"08/08/12 14:49:38","180.0078","39.7","214.36","146","60.03","26"
"08/08/12 14:54:38","180.011","44.9","213.54","179","60.0","26"
"08/08/12 14:59:39","180.0143","47.3","213.06","293","60.0","26"
"08/08/12 15:04:39","180.0174","49.8","213.79","392","60.03","26"
"08/08/12 15:09:38","180.0214","51.4","214.39","118","60.0","26"